Lexington Weather

Lexington, Massachusetts, USA

34°F
4/16/2021 9:16am 
  • Lexington Conditions: Snow, Mist, Overcast
  • Temperature: 34.3°F / 1.3°CColder 4.2°F than last hour.
  • Dew Point: 33.1°FDecreased 4.1°Fsince last hour.
  • Relative Humidity: 95
  • Wind: Wind from N N 1 mph, 10-min avg: 1 mph, gust: 3 mph
  • Barometer: 29.48 inFalling 0.03  inHg/hr Falling Slowly
  • Visibility: ½ mile
  • Snow Today: 0.3 in
  •   

Regional Weather Roundup
for Boston / Norton, MA

        
000
ASUS41 KBOX 151804
RWRBOX

REGIONAL WEATHER ROUNDUP
NATIONAL WEATHER SERVICE BOSTON/NORTON MA
200 PM EDT THU APR 15 2021

NOTE:  "FAIR" INDICATES FEW OR NO CLOUDS BELOW 12,000 FEET WITH NO 
SIGNIFICANT WEATHER AND/OR OBSTRUCTIONS TO VISIBILITY.

MAZALL-151900-
EASTERN MASSACHUSETTS
  
CITY           SKY/WX    TMP DP  RH WIND       PRES   REMARKS
BOSTON         CLOUDY    50  39  66 E16       29.83F                  
6HR MIN TEMP:  49; 6HR MAX TEMP:  51;                                

BEVERLY        NOT AVBL                                               
LAWRENCE       CLOUDY    50  32  50 E9        29.84F                  
BEDFORD        CLOUDY    50  36  58 E13       29.81F                  
BLUE HILL        N/A     50  30  46 SE10G18   29.79F                  
NORWOOD        CLOUDY    55  29  36 E7        29.80F                  
MARSHFIELD     MOSUNNY   48  39  71 E13G22    29.83F                  
PLYMOUTH       CLOUDY    51  32  48 E13       29.81F                  
TAUNTON        CLOUDY    54  28  36 SE9       29.80F                  
NEW BEDFORD    CLOUDY    51  32  48 SE15G21   29.80F                  
$$

MAZALL-151900-
CAPE COD AND THE ISLANDS
  
CITY           SKY/WX    TMP DP  RH WIND       PRES   REMARKS
FALMOUTH       PTSUNNY   48  37  66 SE12G17   29.83F                  
HYANNIS        CLOUDY    48  37  65 E10G18    29.81F                  
CHATHAM        PTSUNNY   47  38  71 E13G18    29.85F                  
PROVINCETOWN   CLOUDY    49  37  63 SE12      29.85F                  
NANTUCKET      CLOUDY    48  39  71 E15       29.83F                  
MARTHAS VNYRD  CLOUDY    51  38  60 E12       29.81F                  
$$
 
MAZALL-151900-
CENTRAL AND WESTERN MASSACHUSETTS
  
CITY           SKY/WX    TMP DP  RH WIND       PRES   REMARKS
WORCESTER      LGT RAIN  46  40  79 E6        29.77F                  
6HR MIN TEMP:  45; 6HR MAX TEMP:  46; 6HR PCP:  0.08;                

FITCHBURG      LGT RAIN  50  39  66 E7        29.80F                  
ORANGE         RAIN      47  44  90 S5        29.78F FOG              
SPRINGFIELD    LGT RAIN  49  49  99 E6        29.74F FOG              
WESTFIELD      LGT RAIN  49  48  97 SE3       29.74F                  
NORTH ADAMS    LGT RAIN  50  48  93 E9        29.70F                  
PITTSFIELD     LGT RAIN  47  45  93 SE8       29.69F                  
$$
 
RIZALL-151900-
RHODE ISLAND
  
CITY           SKY/WX    TMP DP  RH WIND       PRES   REMARKS
PROVIDENCE     CLOUDY    52  31  44 SE7       29.80F                  
6HR MIN TEMP:  47; 6HR MAX TEMP:  52; 6HR PCP: TRACE;                

NEWPORT        CLOUDY    49  34  56 E10       29.79F                  
BLOCK ISLAND   LGT RAIN  44  39  82 E18G25    29.78F                  
SMITHFIELD     CLOUDY    50  28  42 SE10      29.79F                  
WESTERLY       LGT RAIN  43  39  86 E13       29.78F                  
$$
 
CTZALL-151900-
CONNECTICUT
  
CITY           SKY/WX    TMP DP  RH WIND       PRES   REMARKS
BRADLEY INTL   LGT RAIN  49  46  90 SE9       29.74F FOG              
6HR MIN TEMP:  47; 6HR MAX TEMP:  50; 6HR PCP:  0.18;                

HARTFORD       LGT RAIN  51  46  83 SE9       29.75F                  
BRIDGEPORT     RAIN      50  48  93 E8        29.72F FOG              
DANBURY        RAIN      53  49  86 SE9       29.71F FOG              
GROTON         RAIN      45  41  86 E15       29.77F FOG              
NEW HAVEN      LGT RAIN  50  49  96 E10       29.73F FOG              
CHESTER        LGT RAIN  46  46 100 SE9       29.75F                  
MERIDEN        LGT RAIN  51  48  89 SE8       29.73F                  
WILLIMANTIC    RAIN      46  43  89 VRB5      29.77F FOG              
OXFORD         RAIN      49  49 100 SE10      29.73S FOG              
$$

MEZ002-015-021-024-NHZ003-005-008-011-012-014-VTZ005-008-151900-
NORTHERN NEW ENGLAND
  
CITY           SKY/WX    TMP DP  RH WIND       PRES   REMARKS
PORTLAND ME    PTSUNNY   51  36  56 SE9       29.87F                  
6HR MIN TEMP:  45; 6HR MAX TEMP:  53;                                

BANGOR ME      MOSUNNY   62  32  32 SE13G18   29.85F                  
CONCORD NH     LGT RAIN  49  33  54 SE9       29.82S                  
MANCHESTER NH  LGT RAIN  51  31  46 SE8       29.81F                  
NASHUA NH      LGT RAIN  49  37  63 E12       29.82F                  
PORTSMOUTH NH  CLOUDY    49  32  51 E16       29.87F                  
JAFFREY NH     LGT RAIN  46  41  82 CALM      29.78F                  
KEENE NH       LGT RAIN  47  43  86 VRB5      29.77F                  
BURLINGTON VT  LGT RAIN  48  44  86 SE15      29.70F                  
MT. WASHINGTON CLOUDY    28  21  74 SE35        N/A  WCI  12          
$$

NYZ052-076-151900-
EASTERN NEW YORK
  
CITY           SKY/WX    TMP DP  RH WIND       PRES   REMARKS
ALBANY         LGT RAIN  52  45  77 SE18G24   29.66F                  
6HR MIN TEMP:  49; 6HR MAX TEMP:  52; 6HR PCP: TRACE;                

NEW YORK CITY  RAIN      54  50  86 S5        29.68F FOG              
6HR MIN TEMP:  50; 6HR MAX TEMP:  54; 6HR PCP:  0.34;                

$$
 
ANZALL-151900-
MARINE OBSERVATIONS
  
STATION/POSITION TIME  TEMP    WIND        PRES    VSBY  WAVE
                       AIR SEA DIR/SP/G                  HT/PER
                 (UTC) (F)     (DEG/KT/KT) (MB)    (MI)  (FT/S)
BOSTON BUOY      1740   44 45  100/ 16/ 19 1010.8F
BUZZARDS BAY     1700          110/ 20/ 21 1010.4F
NANTUCKET SOUND  1740      47                N/A
MASS BAY-STELLWA 1704   45     130/ 14/ 16 1010.1F  1 7/8  5/11
ISLE OF SHOALS   1700   45     120/ 11/ 12 1011.2F
S OF BLOCK IS    1726      44                N/A           4/11
$$

......................KEY.........................
  SKY/WX - SKY CONDITION/PRESENT WEATHER
  TMP    - TEMPERATURE IN FAHRENHEIT
  DWPT   - DEWPOINT IN FAHRENHEIT
  RH     - RELATIVE HUMIDITY IN PERCENT
  WIND   - DIRECTION AND SPEED IN MPH
  PRES   - MEAN SEA LEVEL PRESSURE IN INCHES OF HG
  WCI    - WIND CHILL INDEX
  VSB    - VISIBILITY IN MILES
  HX     - HEAT INDEX
  TC     - TEMPERATURE IN CELSIUS
  VRB    - VARIABLE WIND DIRECTION
  N/A    - NOT AVAILABLE
  
      

Other recent Regional Weather Roundups

Fri Apr 16, 9:04am

Fri Apr 16, 8:04am

Fri Apr 16, 7:04am

Fri Apr 16, 6:04am

Fri Apr 16, 5:04am

Fri Apr 16, 4:04am

Fri Apr 16, 3:04am

Fri Apr 16, 2:04am

Fri Apr 16, 1:04am

Fri Apr 16, 12:04am

Thu Apr 15, 11:05pm

Thu Apr 15, 10:04pm

Thu Apr 15, 9:04pm

Thu Apr 15, 8:04pm

Thu Apr 15, 7:05pm

Thu Apr 15, 6:04pm

Thu Apr 15, 5:05pm

Thu Apr 15, 4:04pm

Thu Apr 15, 3:05pm

Thu Apr 15, 1:05pm

Thu Apr 15, 12:04pm

Thu Apr 15, 11:04am

Thu Apr 15, 10:05am

Thu Apr 15, 9:04am

Thu Apr 15, 8:04am

Thu Apr 15, 7:04am

Thu Apr 15, 6:04am

Thu Apr 15, 5:04am

Thu Apr 15, 4:04am

Thu Apr 15, 3:04am

Thu Apr 15, 2:04am

Thu Apr 15, 1:04am

Thu Apr 15, 12:04am

Wed Apr 14, 11:04pm

Wed Apr 14, 10:04pm

Wed Apr 14, 9:04pm

Wed Apr 14, 8:04pm

Wed Apr 14, 7:04pm

Wed Apr 14, 6:04pm

Wed Apr 14, 5:05pm

Wed Apr 14, 4:04pm

Wed Apr 14, 3:05pm

Wed Apr 14, 2:04pm

Wed Apr 14, 1:05pm

Wed Apr 14, 12:04pm

Wed Apr 14, 11:04am

Wed Apr 14, 10:04am

Wed Apr 14, 9:04am

Wed Apr 14, 8:04am

Wed Apr 14, 7:04am

Wed Apr 14, 6:04am

Wed Apr 14, 5:04am

Wed Apr 14, 4:04am

Wed Apr 14, 3:04am

Wed Apr 14, 2:04am

Wed Apr 14, 1:04am

Wed Apr 14, 12:04am

Tue Apr 13, 11:04pm

Tue Apr 13, 10:05pm

Tue Apr 13, 9:05pm

Tue Apr 13, 8:05pm

Tue Apr 13, 7:04pm

Tue Apr 13, 6:04pm

Tue Apr 13, 5:05pm

Tue Apr 13, 4:04pm

Tue Apr 13, 3:04pm

Tue Apr 13, 2:05pm

Tue Apr 13, 1:04pm

Tue Apr 13, 12:05pm

Tue Apr 13, 11:05am

Tue Apr 13, 10:04am

Tue Apr 13, 9:04am

Tue Apr 13, 8:04am

Tue Apr 13, 7:04am

Tue Apr 13, 6:04am

Tue Apr 13, 5:04am

Tue Apr 13, 4:04am

Tue Apr 13, 3:04am

Tue Apr 13, 2:04am

Tue Apr 13, 1:04am

Tue Apr 13, 12:05am

Mon Apr 12, 11:04pm

Mon Apr 12, 10:04pm

Mon Apr 12, 9:04pm

Mon Apr 12, 8:04pm

Mon Apr 12, 7:05pm

Mon Apr 12, 6:04pm

Mon Apr 12, 5:04pm

Mon Apr 12, 4:04pm

Mon Apr 12, 3:05pm

Mon Apr 12, 2:04pm

Mon Apr 12, 1:05pm

Mon Apr 12, 12:04pm

Mon Apr 12, 11:04am

Mon Apr 12, 10:04am

Mon Apr 12, 9:04am

Mon Apr 12, 8:04am

Mon Apr 12, 7:04am

Mon Apr 12, 6:04am

Mon Apr 12, 5:04am

Mon Apr 12, 4:04am

Mon Apr 12, 3:04am

Mon Apr 12, 2:04am

Mon Apr 12, 1:05am

Mon Apr 12, 12:04am

Sun Apr 11, 11:04pm

Sun Apr 11, 10:04pm

Sun Apr 11, 9:04pm

Sun Apr 11, 8:04pm

Sun Apr 11, 7:04pm

Sun Apr 11, 6:05pm

Sun Apr 11, 5:05pm

Sun Apr 11, 4:04pm

Sun Apr 11, 3:05pm

Sun Apr 11, 2:05pm

Sun Apr 11, 1:05pm

Sun Apr 11, 12:04pm

Sun Apr 11, 11:05am

Sun Apr 11, 10:05am

Sun Apr 11, 9:04am

Sun Apr 11, 8:04am

Sun Apr 11, 7:04am

Sun Apr 11, 6:04am

Sun Apr 11, 5:04am

Sun Apr 11, 4:04am

Sun Apr 11, 3:04am

Sun Apr 11, 2:04am

Sun Apr 11, 1:05am

Sun Apr 11, 12:04am

Sat Apr 10, 11:05pm

Sat Apr 10, 10:04pm

Sat Apr 10, 9:04pm

Sat Apr 10, 8:04pm

Sat Apr 10, 7:05pm

Sat Apr 10, 6:04pm

Sat Apr 10, 5:04pm

Sat Apr 10, 4:04pm

Sat Apr 10, 3:04pm

Sat Apr 10, 2:05pm

Sat Apr 10, 1:04pm

Sat Apr 10, 12:04pm

Sat Apr 10, 11:04am

Sat Apr 10, 10:04am

Sat Apr 10, 9:04am

Sat Apr 10, 8:04am

Sat Apr 10, 7:04am

Sat Apr 10, 6:04am

Sat Apr 10, 5:04am

Sat Apr 10, 4:04am

Sat Apr 10, 3:04am

Sat Apr 10, 2:04am

Sat Apr 10, 1:05am

Sat Apr 10, 12:04am

Fri Apr 9, 11:04pm

Fri Apr 9, 10:05pm

Fri Apr 9, 9:04pm

Fri Apr 9, 8:05pm

Fri Apr 9, 7:05pm

Fri Apr 9, 6:04pm

Fri Apr 9, 5:04pm

Fri Apr 9, 4:05pm

Fri Apr 9, 3:05pm

Fri Apr 9, 2:04pm

Fri Apr 9, 1:04pm

Fri Apr 9, 12:04pm

Fri Apr 9, 11:05am

Fri Apr 9, 10:04am

Fri Apr 9, 9:04am

Meta data:

ID: 3a0c81cf-3534-400d-8270-2b5f22727f68
Link: https://api.weather.gov/products/3a0c81cf-3534-400d-8270-2b5f22727f68